• In Österreich
  • Länderverzeichnis
  • Für 7 Tage
  • Wassertemperatur
  • Satellitenkarten
  • Wetterkarte
  • News
  • Widgets
  • user-avatar
    Anmelden

    Stündliche Wetter Rio de Janeiro

    Heute, 21 Oktober, Samstag

    Zeit Temperatur Niederschläge Wind Luftdruck Luftfeuchtigkeit
    00:00 +25°C° 0,1 mm 1 m/S 760 mmHg 90%
    01:00 +25°C° 0 mm 1 m/S 759 mmHg 90%
    02:00 +25°C° 0 mm 1 m/S 759 mmHg 91%
    03:00 +25°C° 0 mm 1 m/S 759 mmHg 91%
    04:00 +25°C° 0 mm 1 m/S 759 mmHg 89%
    05:00 +25°C° 0 mm 1 m/S 759 mmHg 87%
    06:00 +25°C° 0 mm 1 m/S 759 mmHg 85%
    07:00 +28°C° 0 mm 1 m/S 759 mmHg 74%
    08:00 +30°C° 0 mm 1 m/S 759 mmHg 63%
    09:00 +32°C° 0 mm 1 m/S 760 mmHg 52%
    10:00 +35°C° 0 mm 2 m/S 759 mmHg 48%
    11:00 +36°C° 0 mm 2 m/S 759 mmHg 44%
    12:00 +38°C° 0 mm 3 m/S 758 mmHg 40%
    13:00 +35°C° 0,6 mm 3 m/S 758 mmHg 50%
    14:00 +33°C° 0,6 mm 3 m/S 758 mmHg 59%
    15:00 +30°C° 0,6 mm 3 m/S 757 mmHg 69%
    16:00 +29°C° 5,5 mm 3 m/S 758 mmHg 76%
    17:00 +27°C° 5,5 mm 3 m/S 758 mmHg 84%
    18:00 +26°C° 5,5 mm 3 m/S 758 mmHg 92%
    19:00 +26°C° 0,7 mm 3 m/S 759 mmHg 91%
    20:00 +26°C° 0,7 mm 3 m/S 759 mmHg 90%
    21:00 +26°C° 0,7 mm 4 m/S 760 mmHg 89%
    22:00 +26°C° 0,2 mm 4 m/S 760 mmHg 87%
    23:00 +26°C° 0,2 mm 4 m/S 759 mmHg 85%

    Morgen, 22 Oktober, Sonntag

    Zeit Temperatur Niederschläge Wind Luftdruck Luftfeuchtigkeit
    00:00 +26°C° 0,2 mm 4 m/S 759 mmHg 82%
    01:00 +26°C° 0 mm 3 m/S 759 mmHg 80%
    02:00 +26°C° 0 mm 3 m/S 758 mmHg 77%
    03:00 +26°C° 0 mm 3 m/S 757 mmHg 75%
    04:00 +27°C° 0 mm 3 m/S 757 mmHg 73%
    05:00 +27°C° 0 mm 3 m/S 757 mmHg 72%
    06:00 +27°C° 0 mm 3 m/S 757 mmHg 70%
    07:00 +29°C° 0 mm 3 m/S 758 mmHg 64%
    08:00 +31°C° 0 mm 3 m/S 758 mmHg 58%
    09:00 +34°C° 0 mm 4 m/S 759 mmHg 53%
    10:00 +35°C° 0 mm 4 m/S 758 mmHg 48%
    11:00 +36°C° 0 mm 3 m/S 758 mmHg 44%
    12:00 +38°C° 0 mm 3 m/S 758 mmHg 39%
    13:00 +35°C° 2,1 mm 3 m/S 757 mmHg 52%
    14:00 +31°C° 2,1 mm 3 m/S 757 mmHg 64%
    15:00 +29°C° 2,1 mm 2 m/S 757 mmHg 76%
    16:00 +28°C° 1,7 mm 2 m/S 757 mmHg 79%
    17:00 +27°C° 1,7 mm 1 m/S 757 mmHg 82%
    18:00 +26°C° 1,7 mm 1 m/S 758 mmHg 85%
    19:00 +26°C° 0,7 mm 1 m/S 759 mmHg 87%
    20:00 +25°C° 0,7 mm 1 m/S 759 mmHg 89%
    21:00 +25°C° 0,7 mm 1 m/S 760 mmHg 91%
    22:00 +25°C° 2 mm 1 m/S 760 mmHg 92%
    23:00 +25°C° 2 mm 1 m/S 760 mmHg 93%

    übermorgen, 23 Oktober, Montag

    Zeit Temperatur Niederschläge Wind Luftdruck Luftfeuchtigkeit
    00:00 +25°C° 2 mm 1 m/S 760 mmHg 94%
    01:00 +25°C° 1 mm 1 m/S 759 mmHg 94%
    02:00 +25°C° 1 mm 1 m/S 759 mmHg 94%
    03:00 +23°C° 1 mm 0 m/S 758 mmHg 94%
    04:00 +23°C° 0,7 mm 0 m/S 759 mmHg 94%
    05:00 +25°C° 0,7 mm 1 m/S 759 mmHg 94%
    06:00 +25°C° 0,7 mm 1 m/S 760 mmHg 94%
    07:00 +25°C° 2,6 mm 2 m/S 760 mmHg 95%
    08:00 +25°C° 2,6 mm 2 m/S 761 mmHg 96%
    09:00 +25°C° 2,6 mm 3 m/S 761 mmHg 96%
    10:00 +24°C° 2,5 mm 3 m/S 761 mmHg 96%
    11:00 +23°C° 2,5 mm 4 m/S 761 mmHg 95%
    12:00 +22°C° 2,5 mm 5 m/S 761 mmHg 95%
    13:00 +22°C° 0,8 mm 4 m/S 761 mmHg 95%
    14:00 +21°C° 0,8 mm 4 m/S 761 mmHg 95%
    15:00 +21°C° 0,8 mm 4 m/S 760 mmHg 95%
    16:00 +21°C° 2,3 mm 4 m/S 761 mmHg 96%
    17:00 +21°C° 2,3 mm 3 m/S 761 mmHg 96%
    18:00 +21°C° 2,3 mm 3 m/S 761 mmHg 96%
    19:00 +21°C° 1,1 mm 3 m/S 762 mmHg 96%
    20:00 +21°C° 1,1 mm 2 m/S 762 mmHg 96%
    21:00 +21°C° 1,1 mm 2 m/S 763 mmHg 96%
    22:00 +21°C° 1 mm 2 m/S 762 mmHg 96%
    23:00 +21°C° 1 mm 2 m/S 762 mmHg 96%

    24 Oktober, Dienstag

    Zeit Temperatur Niederschläge Wind Luftdruck Luftfeuchtigkeit
    00:00 +21°C° 1 mm 2 m/S 762 mmHg 96%
    01:00 +21°C° 0,4 mm 2 m/S 761 mmHg 96%
    02:00 +21°C° 0,4 mm 2 m/S 761 mmHg 96%
    03:00 +22°C° 0,4 mm 1 m/S 760 mmHg 95%
    04:00 +22°C° 0,3 mm 1 m/S 761 mmHg 95%
    05:00 +22°C° 0,3 mm 1 m/S 761 mmHg 95%
    06:00 +22°C° 0,3 mm 1 m/S 761 mmHg 95%
    07:00 +21°C° 0,2 mm 2 m/S 762 mmHg 93%
    08:00 +23°C° 0,2 mm 2 m/S 762 mmHg 91%
    09:00 +23°C° 0,2 mm 2 m/S 762 mmHg 89%
    10:00 +24°C° 0,1 mm 2 m/S 762 mmHg 86%
    11:00 +24°C° 0,1 mm 2 m/S 762 mmHg 83%
    12:00 +25°C° 0,1 mm 2 m/S 762 mmHg 80%
    13:00 +25°C° 0 mm 3 m/S 761 mmHg 82%
    14:00 +24°C° 0 mm 3 m/S 761 mmHg 83%
    15:00 +24°C° 0 mm 3 m/S 761 mmHg 84%
    16:00 +24°C° 0,1 mm 3 m/S 761 mmHg 86%
    17:00 +22°C° 0,1 mm 3 m/S 761 mmHg 87%
    18:00 +22°C° 0,1 mm 3 m/S 761 mmHg 89%
    19:00 +22°C° 0 mm 3 m/S 762 mmHg 89%
    20:00 +22°C° 0 mm 3 m/S 762 mmHg 90%
    21:00 +22°C° 0 mm 3 m/S 762 mmHg 91%
    22:00 +22°C° 0,1 mm 3 m/S 762 mmHg 91%
    23:00 +21°C° 0,1 mm 3 m/S 762 mmHg 91%

    25 Oktober, Mittwoch

    Zeit Temperatur Niederschläge Wind Luftdruck Luftfeuchtigkeit
    00:00 +21°C° 0,1 mm 3 m/S 761 mmHg 91%
    01:00 +21°C° 0 mm 2 m/S 761 mmHg 91%
    02:00 +21°C° 0 mm 2 m/S 761 mmHg 91%
    03:00 +21°C° 0 mm 2 m/S 761 mmHg 91%
    04:00 +21°C° 0 mm 2 m/S 761 mmHg 91%
    05:00 +23°C° 0 mm 2 m/S 761 mmHg 91%
    06:00 +23°C° 0 mm 2 m/S 762 mmHg 91%
    07:00 +22°C° 0 mm 3 m/S 762 mmHg 88%
    08:00 +24°C° 0 mm 3 m/S 762 mmHg 85%
    09:00 +25°C° 0 mm 3 m/S 762 mmHg 83%
    10:00 +26°C° 0 mm 3 m/S 762 mmHg 80%
    11:00 +26°C° 0 mm 3 m/S 762 mmHg 77%
    12:00 +27°C° 0 mm 4 m/S 761 mmHg 74%
    13:00 +27°C° 0 mm 4 m/S 761 mmHg 75%
    14:00 +27°C° 0 mm 4 m/S 761 mmHg 76%
    15:00 +26°C° 0 mm 4 m/S 760 mmHg 77%
    16:00 +26°C° 0 mm 4 m/S 760 mmHg 79%
    17:00 +25°C° 0 mm 4 m/S 761 mmHg 82%
    18:00 +23°C° 0 mm 4 m/S 761 mmHg 85%
    19:00 +23°C° 0 mm 4 m/S 761 mmHg 86%
    20:00 +23°C° 0 mm 4 m/S 761 mmHg 87%
    21:00 +22°C° 0 mm 4 m/S 761 mmHg 88%
    22:00 +22°C° 0 mm 4 m/S 761 mmHg 88%
    23:00 +22°C° 0 mm 4 m/S 761 mmHg 88%

    26 Oktober, Donnerstag

    Zeit Temperatur Niederschläge Wind Luftdruck Luftfeuchtigkeit
    00:00 +22°C° 0 mm 4 m/S 760 mmHg 88%
    01:00 +22°C° 0 mm 4 m/S 760 mmHg 88%
    02:00 +22°C° 0 mm 4 m/S 759 mmHg 88%
    03:00 +22°C° 0 mm 5 m/S 758 mmHg 88%
    04:00 +22°C° 0 mm 4 m/S 759 mmHg 88%
    05:00 +22°C° 0 mm 4 m/S 759 mmHg 87%
    06:00 +22°C° 0 mm 4 m/S 759 mmHg 86%
    07:00 +25°C° 0 mm 4 m/S 759 mmHg 80%
    08:00 +27°C° 0 mm 4 m/S 759 mmHg 73%
    09:00 +28°C° 0 mm 4 m/S 759 mmHg 67%
    10:00 +30°C° 0 mm 4 m/S 759 mmHg 62%
    11:00 +32°C° 0 mm 4 m/S 758 mmHg 58%
    12:00 +33°C° 0 mm 4 m/S 758 mmHg 53%
    13:00 +33°C° 0 mm 5 m/S 757 mmHg 54%
    14:00 +33°C° 0 mm 5 m/S 757 mmHg 54%
    15:00 +33°C° 0 mm 5 m/S 756 mmHg 55%
    16:00 +32°C° 0,2 mm 5 m/S 756 mmHg 63%
    17:00 +29°C° 0,2 mm 5 m/S 757 mmHg 72%
    18:00 +27°C° 0,2 mm 5 m/S 757 mmHg 80%
    19:00 +27°C° 0,2 mm 5 m/S 757 mmHg 81%
    20:00 +27°C° 0,2 mm 5 m/S 757 mmHg 83%
    21:00 +26°C° 0,2 mm 5 m/S 757 mmHg 84%
    22:00 +26°C° 0,6 mm 4 m/S 757 mmHg 85%
    23:00 +26°C° 0,6 mm 4 m/S 757 mmHg 86%
    Mehr zeigen